Location: Aldenham
(51.6667°N, 0.3500°W)
Time: 01:46:24
(UTC+00:00)

Cosmos 2082 Rocket - Pass Details

Date: 18 November 2025
Orbit: 834 x 851 km, 71.0° (Epoch: 13 December)

Event Time Altitude Azimuth Distance (km) Brightness Sun altitude
Rises 17:29:45 0° 329° (NNW) 3,394 5.5 -12.6°
Reaches altitude 10° 17:32:12 10° 332° (NNW) 2,456 4.8 -12.9°
Maximum altitude 17:37:51 76° 58° (ENE) 864 2.1 -13.8°
Drops below altitude 10° 17:43:27 10° 145° (SE) 2,443 4.4 -14.6°
Sets 17:45:53 0° 146° (SSE) 3,375 5.1 -15.0°
